GW4049 Weather Reports


time (UTC)temp
C
wind
direction
speed
KPH
gust
KPH
rain 1hr
cm
rain 24hr
cm
rain mn
cm
humidity
%
barometer
mb
20260507015451 -2 275 4.8 14.5 0.00 0.00 0.00 79 1021.5
20260507014948 -2 287 1.6 14.5 0.00 0.00 0.00 82 1021.2
20260507014444 -2 313 11.3 14.5 0.00 0.00 0.00 86 1021.5
20260507013940 -2 257 1.6 4.8 0.00 0.00 0.00 84 1021.8
20260507013437 -2 260 3.2 3.2 0.00 0.00 0.00 84 1021.5
20260507012935 -1 243 3.2 12.9 0.00 0.00 0.00 83 1021.4
20260507012431 -1 276 1.6 11.3 0.00 0.00 0.00 85 1021.5
20260507011922 -1 260 3.2 12.9 0.00 0.00 0.00 85 1021.4
20260507011419 -1 259 3.2 9.7 0.00 0.00 0.00 84 1021.4
20260507010913 -1 269 3.2 12.9 0.00 0.00 0.00 86 1021.5
20260507010409 -1 328 8.0 16.1 0.00 0.00 0.00 84 1021.4
20260507005906 -1 253 0.0 16.1 0.00 0.00 0.00 84 1021.4
20260507005403 -1 246 8.0 12.9 0.00 0.00 0.00 83 1021.4
20260507004859 -1 338 8.0 14.5 0.00 0.00 0.00 87 1021.4
20260507004356 -1 354 14.5 17.7 0.00 0.00 0.00 84 1021.4
20260507003854 -1 290 3.2 9.7 0.00 0.00 0.00 84 1021.2
20260507003349 -1 251 1.6 12.9 0.00 0.00 0.00 84 1021.5
20260507002844 -1 290 6.4 16.1 0.00 0.00 0.00 83 1021.4
20260507002340 -1 257 3.2 17.7 0.00 0.00 0.00 89 1021.4
20260507001838 0 250 1.6 3.2 0.00 0.00 0.00 89 1021.2
20260507001335 -1 268 1.6 6.4 0.00 0.00 0.00 90 1021.4
20260507000831 -1 348 11.3 14.5 0.00 0.00 0.00 90 1021.1
20260507000328 -1 345 9.7 20.9 0.00 0.00 0.00 92 1021.2
20260506235823 0 240 3.2 4.8 0.00 0.00 0.00 89 1021.2
20260506235320 0 300 9.7 12.9 0.00 0.00 0.00 90 1021.1
20260506234816 -1 245 8.0 11.3 0.00 0.00 0.00 88 1021.1
20260506234314 0 290 0.0 0.0 0.00 0.00 0.00 93 1020.8
20260506233811 -1 290 0.0 0.0 0.00 0.00 0.00 88 1021.0
20260506233307 0 279 0.0 0.0 0.00 0.00 0.00 91 1021.0
20260506232804 -1 286 0.0 0.0 0.00 0.00 0.00 91 1021.0
20260506232259 0 280 0.0 0.0 0.00 0.00 0.00 95 1020.7
20260506231757 0 277 0.0 0.0 0.00 0.00 0.00 93 1020.8
20260506231255 0 250 0.0 0.0 0.00 0.00 0.00 94 1020.6
20260506230752 0 207 0.0 0.0 0.00 0.00 0.00 90 1020.8
20260506230248 0 265 0.0 0.0 0.00 0.00 0.00 96 1020.8
20260506225745 0 275 0.0 0.0 0.00 0.00 0.00 97 1021.0
20260506225242 0 269 0.0 0.0 0.00 0.00 0.00 97 1020.8
20260506224733 0 251 0.0 0.0 0.00 0.00 0.00 95 1020.7
20260506224231 0 259 0.0 0.0 0.00 0.00 0.00 95 1020.7
20260506223727 0 254 0.0 0.0 0.00 0.00 0.00 95 1020.6
20260506223222 0 243 0.0 0.0 0.00 0.00 0.00 93 1020.6
20260506222719 -1 260 0.0 0.0 0.00 0.00 0.00 98 1020.8
20260506222214 -3 245 0.0 0.0 0.00 0.00 0.00 97 1020.8
20260506221712 -3 246 0.0 0.0 0.00 0.00 0.00 98 1021.0
20260506221210 -2 246 0.0 0.0 0.00 0.00 0.00 97 1021.0
20260506220707 -2 246 0.0 0.0 0.00 0.00 0.00 98 1021.0
20260506220202 -2 247 0.0 0.0 0.00 0.00 0.00 97 1020.7
20260506215659 -2 247 0.0 0.0 0.00 0.00 0.00 97 1021.0
20260506215154 -2 248 0.0 0.0 0.00 0.00 0.00 97 1020.8
20260506214651 -2 248 0.0 0.0 0.00 0.00 0.00 96 1021.0
20260506214148 -1 248 0.0 0.0 0.00 0.00 0.00 94 1020.8
20260506213647 -1 258 0.0 0.0 0.00 0.00 0.00 96 1021.1
20260506213144 -1 284 0.0 0.0 0.00 0.00 0.00 98 1021.0
20260506212641 -1 285 0.0 0.0 0.00 0.00 0.00 97 1021.0
20260506212135 -1 285 0.0 0.0 0.00 0.00 0.00 98 1021.1
20260506211632 -2 284 0.0 0.0 0.00 0.00 0.00 97 1020.8
20260506211129 -1 283 0.0 0.0 0.00 0.00 0.00 96 1021.2
20260506210626 -2 278 0.0 0.0 0.00 0.00 0.00 94 1021.1
20260506210122 -1 274 0.0 0.0 0.00 0.00 0.00 96 1021.1
20260506205619 -2 288 0.0 0.0 0.00 0.00 0.00 98 1021.0
20260506205114 -2 290 0.0 0.0 0.00 0.00 0.00 97 1021.0
20260506204612 -2 289 0.0 0.0 0.00 0.00 0.00 97 1021.0
20260506204109 -2 290 0.0 0.0 0.00 0.00 0.00 97 1021.2
20260506203607 -2 289 0.0 0.0 0.00 0.00 0.00 97 1021.2
20260506203103 -3 289 0.0 0.0 0.00 0.00 0.00 96 1021.2
20260506202601 -2 289 0.0 0.0 0.00 0.00 0.00 97 1021.1
20260506202057 -3 289 0.0 0.0 0.00 0.00 0.00 97 1021.4
20260506201555 -3 289 0.0 0.0 0.00 0.00 0.00 97 1021.2
20260506201051 -3 289 0.0 0.0 0.00 0.00 0.00 96 1021.5
20260506200547 -4 289 0.0 0.0 0.00 0.00 0.00 97 1021.4
20260506200044 -3 289 0.0 0.0 0.00 0.00 0.00 96 1021.4
20260506195541 -4 289 0.0 0.0 0.00 0.00 0.00 95 1021.4
20260506195037 -3 289 0.0 0.0 0.00 0.00 0.00 96 1021.2
20260506194535 -4 289 0.0 0.0 0.00 0.00 0.00 97 1021.1
20260506194031 -5 290 0.0 0.0 0.00 0.00 0.00 96 1021.2
20260506193529 -5 290 0.0 0.0 0.00 0.00 0.00 96 1021.5
20260506193026 -4 290 0.0 0.0 0.00 0.00 0.00 97 1021.5
20260506192523 -4 289 0.0 0.0 0.00 0.00 0.00 97 1021.2
20260506192018 -5 290 0.0 0.0 0.00 0.00 0.00 96 1021.5
20260506191515 -5 290 0.0 0.0 0.00 0.00 0.00 97 1021.4
20260506191012 -5 290 0.0 0.0 0.00 0.00 0.00 97 1021.2
20260506190509 -5 290 0.0 0.0 0.00 0.00 0.00 97 1021.4
20260506190006 -5 290 0.0 0.0 0.00 0.00 0.00 96 1021.5
20260506185503 -5 290 0.0 0.0 0.00 0.00 0.00 97 1021.4
20260506184959 -5 290 0.0 0.0 0.00 0.00 0.00 97 1021.5
20260506184457 -5 290 0.0 0.0 0.00 0.00 0.00 97 1021.5
20260506183954 -5 290 0.0 0.0 0.00 0.00 0.00 97 1021.5
20260506183449 -4 290 0.0 0.0 0.00 0.00 0.00 98 1021.5
20260506182946 -4 290 0.0 0.0 0.00 0.00 0.00 98 1021.8
20260506182444 -5 290 0.0 0.0 0.00 0.00 0.00 98 1021.8
20260506181941 -4 290 0.0 0.0 0.00 0.00 0.00 97 1021.5
20260506181439 -4 290 0.0 0.0 0.00 0.00 0.00 98 1021.6
20260506180935 -4 290 0.0 0.0 0.00 0.00 0.00 98 1021.4
20260506180432 -5 290 0.0 0.0 0.00 0.00 0.00 97 1021.6
20260506175923 -5 290 0.0 0.0 0.00 0.00 0.00 98 1021.6
20260506175420 -5 290 0.0 0.0 0.00 0.00 0.00 98 1021.6
20260506174916 -4 290 0.0 0.0 0.00 0.00 0.00 98 1021.5
20260506174414 -5 290 0.0 0.0 0.00 0.00 0.00 98 1021.2
20260506173912 -5 290 0.0 0.0 0.00 0.00 0.00 98 1021.5
20260506173408 -5 290 0.0 0.0 0.00 0.00 0.00 98 1021.6
20260506172905 -5 290 0.0 0.0 0.00 0.00 0.00 98 1021.6
20260506172401 -5 290 0.0 0.0 0.00 0.00 0.00 98 1021.2
20260506171859 -5 290 0.0 0.0 0.00 0.00 0.00 97 1021.2
20260506171356 -5 290 0.0 0.0 0.00 0.00 0.00 97 1021.5
20260506170853 -6 290 0.0 0.0 0.00 0.00 0.00 97 1021.5
20260506170349 -6 290 0.0 0.0 0.00 0.00 0.00 97 1021.2
20260506165849 -6 291 0.0 0.0 0.00 0.00 0.00 97 1021.2
20260506165346 -6 291 0.0 0.0 0.00 0.00 0.00 97 1021.2
20260506164837 -6 291 0.0 0.0 0.00 0.00 0.00 97 1021.0
20260506164334 -6 291 0.0 0.0 0.00 0.00 0.00 97 1020.8
20260506163831 -6 291 0.0 0.0 0.00 0.00 0.00 97 1020.6
20260506163325 -6 291 0.0 0.0 0.00 0.00 0.00 97 1020.7
20260506162821 -5 290 0.0 0.0 0.00 0.00 0.00 97 1020.6
20260506162319 -6 291 0.0 0.0 0.00 0.00 0.00 97 1020.7
20260506161817 -6 291 0.0 0.0 0.00 0.00 0.00 97 1020.4
20260506161314 -5 291 0.0 0.0 0.00 0.00 0.00 97 1020.6
20260506160812 -5 291 0.0 0.0 0.00 0.00 0.00 98 1020.3
20260506160308 -5 291 0.0 0.0 0.00 0.00 0.00 98 1020.2
20260506155807 -5 291 0.0 0.0 0.00 0.00 0.00 97 1020.4
20260506155306 -5 291 0.0 0.0 0.00 0.00 0.00 97 1020.4
20260506153415 -6 291 0.0 0.0 0.00 0.00 0.00 97 1020.3
20260506152913 -6 291 0.0 0.0 0.00 0.00 0.00 97 1020.2
20260506152409 -6 291 0.0 0.0 0.00 0.00 0.00 97 1020.3
20260506151908 -6 291 0.0 0.0 0.00 0.00 0.00 97 1020.2
20260506151404 -6 291 0.0 0.0 0.00 0.00 0.00 97 1020.3
20260506150902 -6 291 0.0 0.0 0.00 0.00 0.00 97 1020.2
20260506150358 -6 291 0.0 0.0 0.00 0.00 0.00 97 1020.2
20260506145855 -6 291 0.0 0.0 0.00 0.00 0.00 97 1020.0
20260506145351 -6 291 0.0 0.0 0.00 0.00 0.00 97 1020.2
20260506144849 -6 291 0.0 0.0 0.00 0.00 0.00 97 1020.2
20260506144345 -7 291 0.0 0.0 0.00 0.00 0.00 97 1019.8
20260506143844 -6 291 0.0 0.0 0.00 0.00 0.00 97 1019.8
20260506143341 -7 291 0.0 0.0 0.00 0.00 0.00 97 1019.8
20260506142839 -7 291 0.0 0.0 0.00 0.00 0.00 97 1019.9
20260506142337 -7 291 0.0 0.0 0.00 0.00 0.00 97 1019.8
20260506141835 -7 291 0.0 0.0 0.00 0.00 0.00 97 1019.8
20260506141332 -7 290 0.0 0.0 0.00 0.00 0.00 97 1019.8
20260506140830 -6 290 0.0 0.0 0.00 0.00 0.00 97 1019.5
20260506140327 -6 290 0.0 0.0 0.00 0.00 0.00 97 1019.8
20260506135824 -6 290 0.0 0.0 0.00 0.00 0.00 97 1019.8
20260506135320 -7 290 0.0 0.0 0.00 0.00 0.00 97 1019.4
20260506134817 -7 290 0.0 0.0 0.00 0.00 0.00 97 1019.5
20260506134313 -7 290 0.0 0.0 0.00 0.00 0.00 97 1019.6
20260506133810 -7 290 0.0 0.0 0.00 0.00 0.00 96 1019.6
20260506133307 -7 290 0.0 0.0 0.00 0.00 0.00 96 1019.5
20260506132804 -7 290 0.0 0.0 0.00 0.00 0.00 96 1019.3
20260506132301 -7 290 0.0 0.0 0.00 0.00 0.00 96 1019.4
20260506131759 -7 290 0.0 0.0 0.00 0.00 0.00 96 1019.3
20260506131255 -7 290 0.0 0.0 0.00 0.00 0.00 96 1019.4
20260506130752 -7 290 0.0 0.0 0.00 0.00 0.00 96 1019.4
20260506130249 -7 290 0.0 0.0 0.00 0.00 0.00 96 1019.3
20260506125747 -7 290 0.0 0.0 0.00 0.00 0.00 96 1019.0
20260506125244 -7 290 0.0 0.0 0.00 0.00 0.00 96 1019.1
20260506124743 -7 290 0.0 0.0 0.00 0.00 0.00 96 1019.0
20260506124240 -7 290 0.0 0.0 0.00 0.00 0.00 96 1018.7
20260506123737 -7 290 0.0 0.0 0.00 0.00 0.00 96 1018.9
20260506123236 -7 290 0.0 0.0 0.00 0.00 0.00 96 1018.6
20260506122732 -7 290 0.0 0.0 0.00 0.00 0.00 96 1018.6
20260506122229 -7 290 0.0 0.0 0.00 0.00 0.00 96 1018.3
20260506121728 -7 290 0.0 0.0 0.00 0.00 0.00 96 1018.7
20260506121224 -7 290 0.0 0.0 0.00 0.00 0.00 96 1018.5
20260506120722 -7 290 0.0 0.0 0.00 0.00 0.00 96 1018.5
20260506120219 -7 290 0.0 0.0 0.00 0.00 0.00 96 1018.3
20260506115717 -7 290 0.0 0.0 0.00 0.00 0.00 96 1018.3
20260506115215 -7 290 0.0 0.0 0.00 0.00 0.00 96 1018.5
20260506114712 -7 290 0.0 0.0 0.00 0.00 0.00 96 1018.6
20260506114210 -7 290 0.0 0.0 0.00 0.00 0.00 96 1017.9
20260506113708 -7 290 0.0 0.0 0.00 0.00 0.00 96 1018.1
20260506113205 -7 290 0.0 0.0 0.00 0.00 0.00 96 1018.1
20260506112701 -7 290 0.0 0.0 0.00 0.00 0.00 96 1017.9
20260506112159 -7 290 0.0 0.0 0.00 0.00 0.00 96 1018.2
20260506111656 -7 290 0.0 0.0 0.00 0.00 0.00 96 1018.2
20260506111154 -7 290 0.0 0.0 0.00 0.00 0.00 96 1017.9
20260506110651 -7 290 0.0 0.0 0.00 0.00 0.00 96 1018.1
20260506110148 -7 290 0.0 0.0 0.00 0.00 0.00 96 1018.1
20260506105645 -7 290 0.0 0.0 0.00 0.00 0.00 96 1018.1
20260506105142 -7 290 0.0 0.0 0.00 0.00 0.00 96 1017.8
20260506104640 -7 290 0.0 0.0 0.00 0.00 0.00 96 1017.8
20260506104137 -7 290 0.0 0.0 0.00 0.00 0.00 96 1017.9
20260506103634 -7 290 0.0 0.0 0.00 0.00 0.00 96 1017.9
20260506103131 -7 290 0.0 0.0 0.00 0.00 0.00 96 1018.2
20260506102629 -7 290 0.0 0.0 0.00 0.00 0.00 96 1018.2
20260506102126 -7 290 0.0 0.0 0.00 0.00 0.00 96 1018.1
20260506101623 -7 290 0.0 0.0 0.00 0.00 0.00 97 1018.2
20260506101120 -7 290 0.0 0.0 0.00 0.00 0.00 97 1018.1
20260506100619 -7 290 0.0 0.0 0.00 0.00 0.00 97 1018.1
20260506100116 -7 290 0.0 0.0 0.00 0.00 0.00 97 1018.2
20260506095615 -7 290 0.0 0.0 0.00 0.00 0.00 97 1018.2
20260506095111 -7 290 0.0 0.0 0.00 0.00 0.00 97 1018.5
20260506094608 -7 290 0.0 0.0 0.00 0.00 0.00 97 1018.2
20260506094106 -7 290 0.0 0.0 0.00 0.00 0.00 97 1018.1
20260506093604 -7 290 0.0 0.0 0.00 0.00 0.00 97 1018.3
20260506093101 -7 290 0.0 0.0 0.00 0.00 0.00 97 1018.2
20260506092559 -7 290 0.0 0.0 0.00 0.00 0.00 97 1017.9
20260506092055 -7 290 0.0 0.0 0.00 0.00 0.00 97 1018.1
20260506091554 -7 290 0.0 0.0 0.00 0.00 0.00 97 1018.1
20260506091051 -6 290 0.0 0.0 0.00 0.00 0.00 97 1018.2
20260506090549 -6 290 0.0 0.0 0.00 0.00 0.00 97 1018.1
20260506090045 -6 290 0.0 0.0 0.00 0.00 0.00 97 1018.2
20260506085542 -6 290 0.0 0.0 0.00 0.00 0.00 97 1018.2
20260506085038 -6 290 0.0 0.0 0.00 0.00 0.00 97 1018.1
20260506084535 -6 290 0.0 0.0 0.00 0.00 0.00 97 1018.3
20260506084031 -6 290 0.0 0.0 0.00 0.00 0.00 97 1017.8
20260506083529 -6 290 0.0 0.0 0.00 0.00 0.00 97 1018.1
20260506083026 -6 290 0.0 0.0 0.00 0.00 0.00 97 1018.2
20260506082523 -6 290 0.0 0.0 0.00 0.00 0.00 97 1018.3
20260506082018 -6 290 0.0 0.0 0.00 0.00 0.00 97 1018.1
20260506081517 -6 290 0.0 0.0 0.00 0.00 0.00 97 1018.2
20260506081014 -6 290 0.0 0.0 0.00 0.00 0.00 97 1018.2
20260506080511 -6 290 0.0 0.0 0.00 0.00 0.00 97 1018.2
20260506073455 -6 290 0.0 0.0 0.00 0.00 0.00 97 1018.2
20260506072952 -6 290 0.0 0.0 0.00 0.00 0.00 97 1018.1
20260506072449 -6 290 0.0 0.0 0.00 0.00 0.00 97 1018.2
20260506071947 -6 290 0.0 0.0 0.00 0.00 0.00 97 1018.2
20260506071444 -6 290 0.0 0.0 0.00 0.00 0.00 97 1018.5
20260506070941 -6 290 0.0 0.0 0.00 0.00 0.00 97 1018.3
20260506070438 -6 290 0.0 0.0 0.00 0.00 0.00 97 1018.3
20260506062416 -6 290 0.0 0.0 0.00 0.00 0.00 97 1018.2
20260506061911 -6 290 0.0 0.0 0.00 0.00 0.00 97 1018.1
20260506061408 -6 290 0.0 0.0 0.00 0.00 0.00 97 1017.9
20260506060906 -6 290 0.0 0.0 0.00 0.00 0.00 97 1017.9
20260506060404 -6 290 0.0 0.0 0.00 0.00 0.00 97 1017.8
20260506051336 -6 291 0.0 0.0 0.00 0.10 0.10 97 1017.7
20260506050833 -6 291 0.0 0.0 0.00 0.10 0.10 97 1017.7
20260506050331 -6 291 0.0 0.0 0.00 0.10 0.10 97 1017.8
20260506044821 -6 291 0.0 0.0 0.00 0.10 0.10 97 1017.5
20260506044319 -6 291 0.0 0.0 0.00 0.10 0.10 97 1017.5
20260506043816 -6 291 0.0 0.0 0.00 0.10 0.10 97 1017.4
20260506043313 -6 291 0.0 0.0 0.00 0.10 0.10 97 1017.5
20260506042812 -6 291 0.0 0.0 0.00 0.10 0.10 97 1017.4
20260506042310 -6 291 0.0 0.0 0.00 0.10 0.10 97 1017.4
20260506041809 -6 291 0.0 0.0 0.00 0.10 0.10 97 1017.5
20260506041305 -6 291 0.0 0.0 0.00 0.10 0.10 97 1017.5
20260506040802 -6 291 0.0 0.0 0.00 0.10 0.10 97 1017.4
20260506040259 -6 291 0.0 0.0 0.00 0.10 0.10 97 1017.5
20260506035756 -6 291 0.0 0.0 0.00 0.10 0.10 97 1017.4
20260506035253 -6 291 0.0 0.0 0.00 0.10 0.10 97 1017.4
20260506034750 -6 291 0.0 0.0 0.00 0.10 0.10 97 1017.3
20260506034247 -6 291 0.0 0.0 0.00 0.10 0.10 97 1017.1
20260506033744 -6 291 0.0 0.0 0.00 0.10 0.10 97 1017.3
20260506033241 -6 291 0.0 0.0 0.00 0.10 0.10 97 1017.1
20260506032738 -6 291 0.0 0.0 0.00 0.10 0.10 97 1017.0
20260506032235 -6 291 0.0 0.0 0.00 0.10 0.10 97 1017.0
20260506031732 -6 291 0.0 0.0 0.00 0.10 0.10 97 1016.9
20260506031229 -6 291 0.0 0.0 0.00 0.10 0.10 97 1016.8
20260506030727 -6 291 0.0 0.0 0.00 0.10 0.10 97 1016.6
20260506030225 -6 291 0.0 0.0 0.00 0.10 0.10 97 1016.8
20260506025721 -6 291 0.0 0.0 0.00 0.10 0.10 97 1016.5
20260506025218 -6 291 0.0 0.0 0.00 0.10 0.10 97 1016.5
20260506024715 -6 291 0.0 0.0 0.00 0.10 0.10 97 1016.4
20260506024211 -6 271 0.0 0.0 0.00 0.10 0.10 97 1016.4
20260506023707 -6 271 0.0 0.0 0.00 0.10 0.10 97 1016.6
20260506023205 -6 291 0.0 0.0 0.00 0.10 0.10 97 1016.1
20260506022702 -6 271 0.0 0.0 0.00 0.10 0.10 97 1016.2
20260506022159 -6 304 0.0 0.0 0.00 0.10 0.10 97 1016.1
20260506021652 -6 274 0.0 0.0 0.00 0.10 0.10 97 1016.2
20260506021149 -6 278 0.0 0.0 0.00 0.10 0.10 97 1016.1
20260506020645 -6 278 0.0 0.0 0.00 0.10 0.10 97 1016.0
20260506020143 -6 285 0.0 0.0 0.00 0.10 0.10 97 1016.0
20260506015641 -5 283 0.0 0.0 0.00 0.10 0.10 98 1015.7